TimeEEST,TemperatureF,Dew PointF,Humidity,Sea Level PressureIn,VisibilityMPH,Wind Direction,Wind SpeedMPH,Gust SpeedMPH,PrecipitationIn,Events,Conditions,WindDirDegrees,DateUTC
12:20 AM,59.0,48.2,67,29.80,-9999.0,North,8.1,-,N/A,,Clear,10,2013-05-27 21:20:00
12:50 AM,59.0,50.0,72,29.83,-9999.0,ENE,4.6,-,N/A,,Clear,70,2013-05-27 21:50:00
1:20 AM,57.2,50.0,77,29.83,-9999.0,NE,8.1,-,N/A,,Clear,40,2013-05-27 22:20:00
1:50 AM,57.2,50.0,77,29.83,-9999.0,NE,4.6,-,N/A,,Clear,40,2013-05-27 22:50:00
2:20 AM,57.2,50.0,77,29.83,-9999.0,WSW,4.6,-,N/A,,Clear,240,2013-05-27 23:20:00
2:50 AM,57.2,48.2,72,29.83,-9999.0,SW,6.9,-,N/A,,Clear,220,2013-05-27 23:50:00
3:20 AM,55.4,48.2,77,29.83,-9999.0,SSW,5.8,-,N/A,,Clear,200,2013-05-28 00:20:00
3:50 AM,55.4,48.2,77,29.83,-9999.0,SSE,3.5,-,N/A,,Clear,150,2013-05-28 00:50:00
4:20 AM,55.4,48.2,77,29.83,6.2,SSW,5.8,-,N/A,,Scattered Clouds,200,2013-05-28 01:20:00
4:50 AM,55.4,48.2,77,29.83,6.2,West,4.6,-,N/A,,Scattered Clouds,260,2013-05-28 01:50:00
5:20 AM,53.6,48.2,82,29.86,6.2,SW,3.5,-,N/A,,Scattered Clouds,230,2013-05-28 02:20:00
5:50 AM,57.2,50.0,77,29.86,6.2,Variable,1.2,-,N/A,,Scattered Clouds,0,2013-05-28 02:50:00
6:20 AM,60.8,50.0,68,29.86,6.2,Variable,1.2,-,N/A,,Partly Cloudy,0,2013-05-28 03:20:00
6:50 AM,60.8,50.0,68,29.86,6.2,NNE,5.8,-,N/A,,Partly Cloudy,30,2013-05-28 03:50:00
7:20 AM,64.4,50.0,59,29.86,6.2,North,3.5,-,N/A,,Scattered Clouds,10,2013-05-28 04:20:00
7:50 AM,66.2,51.8,60,29.86,6.2,North,4.6,-,N/A,,Scattered Clouds,350,2013-05-28 04:50:00
8:20 AM,68.0,50.0,52,29.86,6.2,NW,4.6,-,N/A,,Scattered Clouds,320,2013-05-28 05:20:00
8:50 AM,71.6,51.8,50,29.86,6.2,WSW,4.6,-,N/A,,Scattered Clouds,240,2013-05-28 05:50:00
9:20 AM,73.4,50.0,44,29.86,6.2,Variable,3.5,-,N/A,,Scattered Clouds,0,2013-05-28 06:20:00
9:50 AM,75.2,53.6,47,29.86,6.2,SW,6.9,-,N/A,,Scattered Clouds,220,2013-05-28 06:50:00
10:20 AM,77.0,50.0,39,29.86,6.2,Variable,4.6,-,N/A,,Scattered Clouds,0,2013-05-28 07:20:00
10:50 AM,78.8,50.0,36,29.83,6.2,Variable,4.6,-,N/A,,Scattered Clouds,0,2013-05-28 07:50:00
11:20 AM,80.6,48.2,32,29.83,6.2,WNW,6.9,-,N/A,,Partly Cloudy,300,2013-05-28 08:20:00
11:50 AM,82.4,46.4,28,29.83,6.2,Variable,3.5,-,N/A,,Partly Cloudy,0,2013-05-28 08:50:00
12:20 PM,84.2,41.0,22,29.83,6.2,Variable,3.5,-,N/A,,Partly Cloudy,0,2013-05-28 09:20:00
12:50 PM,84.2,44.6,25,29.83,6.2,Variable,4.6,-,N/A,,Partly Cloudy,0,2013-05-28 09:50:00
1:20 PM,84.2,44.6,25,29.80,6.2,Variable,4.6,-,N/A,,Scattered Clouds,0,2013-05-28 10:20:00
1:50 PM,86.0,39.2,19,29.80,6.2,Variable,4.6,-,N/A,,Scattered Clouds,0,2013-05-28 10:50:00
2:20 PM,84.2,39.2,20,29.77,6.2,Variable,4.6,-,N/A,,Mostly Cloudy,0,2013-05-28 11:20:00
2:50 PM,84.2,41.0,22,29.77,6.2,SSW,6.9,-,N/A,,Mostly Cloudy,200,2013-05-28 11:50:00
3:20 PM,84.2,42.8,23,29.77,6.2,SSW,5.8,-,N/A,,Mostly Cloudy,210,2013-05-28 12:20:00
3:50 PM,84.2,39.2,20,29.80,6.2,WSW,4.6,-,N/A,Thunderstorm,Thunderstorm,250,2013-05-28 12:50:00
4:05 PM,73.4,46.4,38,29.86,6.2,North,26.5,41.4,N/A,Thunderstorm,Thunderstorm,10,2013-05-28 13:05:00
4:15 PM,69.8,46.4,43,29.86,6.2,North,23.0,38.0,N/A,Rain-Thunderstorm,Light Thunderstorms and Rain,10,2013-05-28 13:15:00
4:20 PM,69.8,46.4,43,29.86,6.2,North,20.7,32.2,N/A,Rain-Thunderstorm,Light Thunderstorms and Rain,360,2013-05-28 13:20:00
4:29 PM,62.6,53.6,72,29.86,5.6,North,17.3,28.8,N/A,Rain-Thunderstorm,Thunderstorms and Rain,360,2013-05-28 13:29:00
4:43 PM,62.6,53.6,72,29.83,6.2,NNE,20.7,33.4,N/A,,Mostly Cloudy,20,2013-05-28 13:43:00
4:50 PM,62.6,55.4,77,29.86,6.2,NNE,16.1,-,N/A,,Mostly Cloudy,20,2013-05-28 13:50:00
5:20 PM,64.4,53.6,68,29.89,6.2,NNE,13.8,-,N/A,,Mostly Cloudy,30,2013-05-28 14:20:00
5:50 PM,66.2,46.4,49,29.92,6.2,East,12.7,-,N/A,,Mostly Cloudy,80,2013-05-28 14:50:00
6:00 PM,68.0,48.2,49,29.95,6.2,ENE,6.9,-,N/A,Thunderstorm,Thunderstorm,70,2013-05-28 15:00:00
6:20 PM,68.0,44.6,43,29.95,6.2,Variable,5.8,-,N/A,Thunderstorm,Thunderstorm,0,2013-05-28 15:20:00
6:38 PM,66.2,51.8,60,29.95,6.2,ESE,3.5,-,N/A,Rain-Thunderstorm,Light Thunderstorms and Rain,120,2013-05-28 15:38:00
6:50 PM,64.4,51.8,64,29.92,6.2,ESE,9.2,-,N/A,,Mostly Cloudy,110,2013-05-28 15:50:00
7:50 PM,64.4,46.4,52,29.89,6.2,East,13.8,-,N/A,,Mostly Cloudy,100,2013-05-28 16:50:00
8:20 PM,64.4,44.6,49,29.89,6.2,East,15.0,-,N/A,,Mostly Cloudy,80,2013-05-28 17:20:00
8:50 PM,64.4,44.6,49,29.92,6.2,East,6.9,-,N/A,,Mostly Cloudy,80,2013-05-28 17:50:00
9:20 PM,62.6,48.2,59,29.92,6.2,NNW,5.8,-,N/A,,Mostly Cloudy,340,2013-05-28 18:20:00
9:50 PM,60.8,50.0,68,29.95,6.2,North,5.8,-,N/A,,Mostly Cloudy,350,2013-05-28 18:50:00
10:20 PM,59.0,50.0,72,29.95,6.2,NNE,5.8,-,N/A,,Mostly Cloudy,30,2013-05-28 19:20:00
10:50 PM,57.2,51.8,82,29.92,6.2,NE,5.8,-,N/A,,Mostly Cloudy,50,2013-05-28 19:50:00
11:20 PM,57.2,50.0,77,29.92,6.2,NE,4.6,-,N/A,,Mostly Cloudy,50,2013-05-28 20:20:00
11:50 PM,57.2,51.8,82,29.92,6.2,Variable,1.2,-,N/A,,Scattered Clouds,0,2013-05-28 20:50:00